Wind_Speed
22 23 27 20 18 17 22 23 23 22 20 27 29 32 28 25 25 23 26 28 30 33 33 34 34 34 34 36 34 31 30 21 20 19 19 19 22 24 26 26 23 22 22 22
21 25 19 17 17 17 17 23 25 21 22 28 31 37 34 34 34 33 33 36 39 43 43 44 45 43 40 39 38 36 32 24 22 22 21 19 22 25 26 25 24 23 22 21
15 8 9 14 15 18 17 22 21 24 25 29 35 46 39 34 35 34 34 33 35 40 45 47 48 45 39 40 41 41 36 27 24 23 24 19 20 22 24 24 24 23 22 21
11 8 7 9 15 16 20 19 20 25 24 24 16 27 32 30 26 22 29 30 26 28 31 37 44 46 41 40 41 44 42 34 28 21 21 21 19 21 24 23 23 22 20 19
13 10 11 12 12 11 18 17 20 23 26 29 21 21 25 22 17 23 21 22 20 21 24 26 26 34 39 44 47 49 46 40 31 18 20 23 19 23 21 20 21 20 19 17
20 20 21 18 17 19 19 22 22 25 27 18 28 22 21 10 15 20 22 26 26 28 29 31 29 31 34 40 50 51 45 35 24 9 20 18 18 18 17 19 19 18 16 15
22 22 21 24 26 24 26 21 8 7 4 8 5 10 23 22 27 28 27 28 32 33 28 28 27 29 25 36 48 44 28 9 15 17 11 14 18 17 19 19 18 16 14 15
19 17 16 10 15 15 15 18 10 6 3 4 6 9 12 16 20 22 24 22 21 22 22 23 18 15 20 31 39 10 8 12 13 14 12 16 18 18 18 17 18 17 16 18
13 10 8 11 16 14 7 9 11 10 18 9 10 18 16 16 10 13 14 13 13 12 16 20 11 6 15 11 11 25 30 24 18 24 18 18 17 19 17 18 19 19 20 23
13 23 16 15 21 28 25 19 10 6 3 6 6 14 13 10 8 11 8 8 17 26 22 27 25 25 22 22 24 27 29 31 32 24 22 21 21 19 21 20 20 21 25 21
17 19 19 18 18 22 25 25 12 11 11 5 11 15 14 10 17 12 11 16 15 14 14 20 21 22 21 20 22 20 20 21 22 23 22 15 15 18 20 21 22 24 25 22
28 21 27 27 26 23 27 28 27 20 18 12 6 19 34 33 24 16 27 28 30 26 17 25 23 20 20 22 22 22 21 19 20 20 19 22 28 21 17 22 24 26 27 25
15 8 16 21 12 13 18 17 15 11 14 15 5 13 22 18 27 35 36 40 27 17 17 19 23 23 26 28 26 24 21 21 21 22 20 25 29 31 27 23 24 26 27 28
21 29 21 24 28 28 35 39 35 34 21 28 37 39 47 46 40 31 30 28 30 22 23 26 26 25 28 30 31 30 29 27 28 26 25 22 23 29 32 29 28 31 30 30
31 38 34 44 39 39 41 46 29 27 37 30 38 39 39 39 31 35 31 29 24 25 19 19 18 21 25 28 31 33 33 33 33 34 31 27 24 24 23 27 30 33 35 33
26 32 30 44 39 35 41 44 33 45 48 46 38 38 35 25 28 26 22 21 20 17 21 24 26 30 33 33 34 36 36 35 33 34 34 30 21 24 24 24 26 27 31 25
26 23 22 36 30 23 28 35 32 32 35 34 34 30 24 23 24 22 22 25 27 29 30 30 30 34 34 33 36 36 31 32 34 30 33 30 27 23 24 24 26 29 27 29
35 33 28 31 25 11 25 22 18 24 39 37 32 26 27 19 17 23 23 22 24 24 25 26 29 31 30 22 20 19 22 27 27 26 27 21 23 24 25 22 26 27 28 29
34 37 28 21 14 18 31 30 14 21 34 23 18 28 20 19 12 6 12 16 18 20 22 23 24 22 18 15 9 11 11 15 16 17 17 22 23 20 21 26 32 28 28 31
12 19 32 20 5 4 28 20 17 24 35 26 25 23 16 10 11 6 15 17 18 21 22 23 23 19 18 16 12 13 11 11 11 15 19 17 17 16 17 18 24 27 28 30
20 19 26 31 21 17 26 25 19 16 19 17 21 11 14 14 10 10 16 22 24 24 25 23 23 21 17 15 16 13 12 12 15 16 16 17 17 19 19 25 29 29 26 25
20 14 18 19 19 16 22 25 17 16 15 14 9 7 11 12 12 15 19 22 25 27 26 26 28 18 18 18 16 16 13 15 13 14 15 15 17 18 19 22 21 18 20 22
12 18 8 8 8 13 19 17 12 13 15 16 17 14 12 10 11 17 21 25 28 24 21 23 17 16 16 18 16 15 14 13 13 14 15 14 14 15 17 19 19 20 20 19
27 23 20 23 20 22 22 20 17 16 17 13 12 10 11 15 18 23 24 26 25 19 17 20 19 22 24 16 13 15 15 15 14 14 15 15 14 15 14 16 15 15 17 16
30 27 30 36 39 31 22 20 19 21 22 16 15 14 15 16 22 27 28 24 24 18 16 16 20 16 5 5 9 13 15 15 16 15 15 15 15 14 13 15 14 15 15 14
39 39 35 42 31 27 28 20 24 28 24 23 23 23 22 21 20 22 26 24 21 20 17 16 13 13 14 11 13 15 16 17 17 17 16 17 17 15 14 14 13 14 14 14
Wind_Direction
282 271 269 284 280 274 275 274 284 280 293 297 293 290 280 263 261 262 269 271 274 275 281 274 272 275 275 267 268 275 274 272 283 293 284 269 261 259 259 259 259 259 260 263
277 276 282 261 254 258 261 268 275 284 287 289 293 288 287 281 274 276 276 271 269 271 271 272 273 276 273 269 269 266 268 260 272 279 280 270 258 256 260 261 262 260 259 259
265 274 278 262 234 254 272 270 269 283 290 289 296 290 293 289 282 280 280 276 270 268 269 267 268 273 278 275 271 266 262 253 257 264 275 265 268 260 258 256 256 255 253 254
280 272 300 302 260 257 278 276 277 282 291 298 295 293 293 298 295 269 287 287 282 273 274 275 273 276 280 273 268 265 257 248 251 255 274 262 258 253 248 252 258 257 254 257
257 255 255 273 273 270 281 279 280 285 285 290 284 280 286 298 264 275 282 272 272 270 277 283 283 275 274 268 261 250 244 243 248 242 264 261 249 250 254 258 257 258 257 255
274 268 268 268 267 267 281 285 280 277 278 274 278 250 285 277 296 297 289 279 279 282 288 294 292 296 289 272 246 240 236 236 237 254 271 266 256 254 255 257 254 249 250 259
294 280 268 272 275 270 267 271 273 282 221 240 251 256 255 273 280 287 285 285 286 291 291 285 278 277 290 261 235 231 231 272 290 276 269 268 257 252 250 247 247 243 245 250
288 289 291 276 276 274 268 257 224 251 225 251 270 262 276 274 280 286 290 294 292 286 284 271 270 274 262 243 238 290 331 331 318 303 264 255 258 249 241 239 240 235 234 235
288 266 268 270 262 277 283 257 260 291 287 290 268 265 253 259 269 289 298 293 290 294 306 311 325 316 251 267 287 309 313 313 310 306 310 278 258 247 241 239 233 229 230 238
260 282 272 269 265 263 278 273 276 243 269 245 268 280 268 223 310 324 310 311 298 291 304 299 296 292 298 311 313 311 318 314 285 267 273 266 254 248 246 242 237 230 234 245
276 279 271 271 261 264 261 265 261 260 237 241 270 271 258 262 306 281 319 301 316 307 295 303 307 307 303 302 312 308 310 305 304 302 263 280 285 267 251 247 237 237 237 245
289 292 286 283 278 271 267 270 264 260 266 240 242 260 267 278 271 266 301 310 292 276 271 287 294 290 290 293 297 291 297 304 305 291 273 265 248 247 254 247 240 236 241 249
294 284 317 299 289 263 248 255 261 256 287 270 294 265 268 248 282 285 297 302 303 280 268 268 278 285 281 278 279 279 271 279 281 283 264 261 260 261 247 240 248 245 244 243
278 291 278 267 275 286 283 276 274 281 274 276 269 278 284 291 292 292 290 285 293 288 265 273 273 273 275 271 271 272 275 276 270 273 264 263 268 264 264 249 243 245 244 242
269 272 275 277 281 285 281 278 276 273 276 262 279 279 288 288 288 292 291 283 276 284 275 264 263 270 272 270 270 270 267 272 271 269 263 265 261 271 264 256 258 254 259 241
283 273 273 278 283 278 278 276 276 279 285 283 283 284 294 294 283 289 286 272 265 259 259 267 272 275 283 289 276 263 264 264 267 263 260 267 260 253 260 262 253 255 256 246
272 267 273 274 282 289 271 271 281 289 288 285 280 294 297 287 295 284 272 276 280 279 279 282 293 296 299 295 284 264 256 259 261 266 249 247 253 252 249 258 261 253 262 247
270 270 265 271 267 238 272 289 286 287 289 282 279 279 293 290 279 275 286 287 286 290 297 300 300 301 299 295 290 270 259 261 257 245 250 254 252 254 262 261 253 254 249 256
271 262 256 253 238 265 279 290 302 286 286 287 285 273 279 275 247 245 283 294 299 298 305 307 295 291 286 283 313 241 247 245 238 238 245 250 249 244 255 266 255 256 259 249
256 251 243 243 261 259 276 289 287 285 276 277 272 278 269 232 290 283 303 314 307 297 296 303 295 272 281 277 276 265 267 258 239 235 255 234 238 248 252 258 273 272 264 261
262 253 232 244 253 257 274 277 274 278 275 281 276 230 235 260 277 281 303 314 317 314 312 299 298 276 270 268 257 252 256 251 247 252 256 250 249 248 245 251 255 258 259 256
250 248 244 245 247 257 270 278 272 259 275 257 249 257 255 262 263 284 295 305 316 316 309 300 298 267 260 260 253 248 246 248 255 261 262 257 254 256 258 258 250 250 245 253
252 238 267 268 239 299 302 303 309 338 310 276 268 219 240 261 275 280 289 303 314 315 309 318 301 262 267 246 241 247 254 259 261 261 261 259 256 258 261 249 241 246 245 243
265 270 283 294 275 297 307 308 302 312 293 303 303 257 256 272 280 283 293 300 321 311 304 308 316 293 250 222 234 246 256 260 262 263 262 260 258 254 254 249 245 247 245 239
273 277 283 283 280 295 295 285 273 278 287 293 293 280 278 274 269 276 287 297 316 309 301 298 314 322 237 185 237 252 257 264 268 267 267 265 260 249 244 239 236 242 240 244
272 276 277 278 289 287 276 258 259 266 268 264 277 269 260 272 280 287 287 301 308 308 299 286 301 300 314 302 283 276 275 272 270 270 269 266 261 251 237 228 228 239 245 245
Height
3102 3102 3099 3101 3101 3101 3101 3099 3097 3097 3098 3094 3093 3090 3090 3090 3089 3088 3086 3084 3082 3080 3081 3078 3078 3080 3079 3077 3078 3080 3081 3081 3080 3080 3080 3081 3082 3083 3083 3083 3085 3086 3087 3089
3099 3094 3096 3097 3097 3096 3095 3094 3092 3092 3094 3090 3087 3082 3084 3085 3084 3084 3081 3077 3076 3072 3069 3068 3068 3067 3066 3067 3067 3070 3074 3074 3074 3074 3074 3074 3075 3076 3078 3079 3080 3081 3082 3083
3094 3095 3094 3093 3093 3092 3092 3091 3090 3090 3087 3087 3082 3070 3074 3076 3075 3076 3073 3069 3066 3065 3061 3059 3058 3059 3060 3059 3060 3061 3065 3068 3067 3068 3069 3068 3069 3070 3073 3073 3073 3074 3076 3078
3093 3093 3091 3091 3090 3091 3088 3089 3087 3086 3084 3081 3082 3066 3070 3070 3069 3067 3065 3063 3062 3060 3057 3054 3053 3053 3053 3053 3054 3056 3057 3058 3059 3060 3062 3062 3064 3065 3068 3067 3069 3069 3071 3073
3090 3089 3088 3088 3089 3088 3086 3086 3085 3084 3082 3079 3078 3077 3060 3063 3063 3062 3062 3058 3056 3054 3052 3050 3046 3045 3044 3043 3046 3047 3048 3048 3049 3049 3054 3055 3056 3059 3060 3062 3063 3065 3066 3068
3084 3084 3084 3082 3083 3083 3081 3081 3080 3079 3078 3072 3070 3071 3054 3055 3054 3054 3055 3053 3050 3047 3046 3044 3042 3041 3039 3038 3041 3041 3042 3041 3038 3036 3044 3046 3048 3053 3055 3056 3059 3059 3060 3062
3081 3081 3081 3081 3078 3079 3077 3077 3074 3072 3070 3065 3062 3062 3053 3052 3050 3049 3048 3047 3044 3041 3039 3038 3036 3035 3035 3039 3041 3037 3034 3025 3033 3031 3033 3040 3045 3047 3050 3052 3052 3053 3054 3058
3074 3071 3076 3075 3076 3075 3074 3074 3074 3069 3066 3060 3061 3054 3051 3049 3047 3046 3045 3043 3040 3038 3035 3032 3030 3029 3030 3034 3036 3021 3025 3030 3028 3031 3033 3036 3040 3042 3044 3046 3047 3050 3049 3051
3072 3067 3069 3072 3071 3074 3071 3071 3070 3066 3062 3060 3052 3051 3049 3047 3045 3044 3042 3042 3038 3035 3033 3030 3028 3028 3029 3029 3027 3026 3025 3027 3028 3033 3033 3035 3034 3036 3038 3040 3044 3044 3046 3047
3069 3063 3063 3066 3066 3068 3067 3068 3067 3065 3062 3059 3049 3046 3043 3045 3044 3042 3040 3037 3034 3033 3032 3031 3029 3030 3028 3028 3027 3026 3024 3025 3028 3029 3030 3030 3030 3029 3031 3033 3036 3039 3040 3043
3066 3062 3059 3060 3061 3061 3061 3060 3062 3060 3056 3050 3047 3040 3040 3041 3041 3040 3036 3034 3032 3033 3029 3029 3028 3026 3023 3023 3022 3023 3023 3022 3024 3023 3023 3023 3023 3022 3024 3028 3030 3036 3036 3036
3063 3059 3051 3051 3054 3056 3055 3053 3055 3053 3049 3043 3040 3032 3034 3037 3036 3033 3031 3029 3027 3025 3025 3026 3024 3023 3022 3019 3019 3018 3018 3019 3019 3019 3019 3022 3023 3021 3020 3023 3025 3028 3031 3032
3057 3057 3050 3044 3047 3047 3047 3046 3046 3046 3044 3040 3039 3028 3031 3028 3028 3027 3023 3021 3022 3019 3018 3018 3019 3018 3017 3015 3014 3014 3013 3014 3014 3014 3014 3016 3016 3017 3016 3016 3018 3022 3023 3024
3055 3054 3055 3048 3047 3049 3044 3040 3042 3042 3037 3036 3031 3028 3023 3022 3020 3018 3016 3013 3013 3010 3010 3010 3009 3009 3006 3007 3006 3005 3003 3004 3006 3006 3008 3009 3009 3010 3008 3008 3011 3013 3013 3015
3049 3045 3048 3039 3038 3038 3034 3028 3032 3031 3027 3025 3022 3019 3014 3012 3011 3010 3008 3007 3005 3004 3003 3004 3003 3002 3001 2999 2999 2996 2994 2995 2996 2998 3000 3001 3000 3002 3000 3000 3002 3005 3007 3006
3039 3035 3038 3028 3032 3030 3023 3021 3023 3019 3017 3011 3011 3006 3009 3005 3003 3002 3001 3001 3000 2999 2998 2997 2995 2993 2991 2988 2985 2983 2984 2985 2987 2988 2991 2992 2993 2994 2994 2994 2996 2998 2998 2999
3031 3031 3031 3020 3023 3021 3013 3013 3013 3011 3009 3007 3002 2999 2998 2997 2995 2995 2996 2995 2994 2992 2990 2987 2985 2981 2979 2975 2972 2970 2973 2975 2976 2978 2981 2983 2985 2984 2986 2987 2988 2989 2991 2992
3019 3022 3025 3017 3017 3009 3005 3005 3004 3003 2999 2997 2996 2993 2992 2991 2991 2990 2990 2988 2986 2983 2981 2978 2976 2973 2970 2966 2962 2961 2962 2964 2965 2969 2973 2975 2977 2978 2978 2979 2982 2983 2985 2986
3010 3013 3014 3011 3005 2999 2997 2999 2997 2995 2990 2990 2985 2987 2987 2985 2983 2985 2984 2983 2980 2977 2975 2972 2969 2966 2965 2962 2957 2956 2957 2958 2959 2962 2966 2969 2970 2970 2972 2972 2971 2976 2978 2979
3002 3002 3007 3004 2997 2996 2992 2993 2993 2990 2983 2984 2982 2982 2982 2981 2981 2980 2979 2977 2975 2973 2970 2967 2964 2962 2961 2959 2955 2955 2955 2955 2956 2959 2961 2962 2963 2964 2965 2966 2968 2969 2970 2971
3000 2997 2994 2995 2994 2990 2988 2985 2987 2986 2983 2977 2977 2976 2975 2976 2975 2973 2973 2972 2969 2966 2964 2961 2957 2956 2956 2955 2953 2953 2952 2953 2954 2955 2956 2957 2957 2958 2959 2960 2961 2962 2963 2964
2993 2993 2991 2990 2989 2986 2981 2981 2982 2978 2974 2973 2973 2973 2971 2971 2970 2970 2969 2967 2965 2961 2958 2954 2950 2948 2950 2950 2950 2950 2950 2949 2950 2950 2951 2952 2953 2952 2952 2953 2954 2955 2956 2957
2988 2985 2984 2983 2979 2979 2977 2976 2972 2970 2968 2968 2968 2969 2968 2967 2966 2966 2965 2963 2960 2956 2952 2949 2945 2945 2945 2945 2945 2945 2945 2945 2945 2946 2947 2947 2947 2947 2947 2947 2948 2949 2950 2952
2981 2981 2978 2979 2975 2974 2974 2974 2970 2966 2965 2963 2964 2963 2964 2963 2963 2961 2960 2958 2955 2952 2948 2945 2943 2939 2939 2939 2939 2940 2940 2941 2941 2942 2943 2943 2943 2943 2943 2943 2944 2945 2946 2947
2975 2975 2973 2970 2967 2969 2969 2969 2968 2965 2962 2961 2960 2959 2959 2958 2957 2956 2955 2952 2950 2947 2945 2942 2938 2934 2933 2932 2936 2937 2937 2937 2937 2937 2937 2938 2938 2939 2939 2940 2940 2942 2943 2944
2966 2966 2966 2957 2962 2961 2958 2960 2960 2958 2956 2956 2954 2952 2953 2952 2952 2951 2949 2947 2944 2942 2940 2938 2937 2934 2931 2932 2932 2932 2932 2932 2932 2932 2932 2932 2933 2934 2935 2936 2937 2938 2939 2940